Wind_Speed
44 36 34 33 32 27 26 20 12 8 7 6 5 5 13 19 20 16 13 12 11 12 10 11 12 13 14 14 14 14 11 7 6 6 6 3 5 11 17 19 20 22 25 25 26 24 24 21 25 29 33 32 32 33
39 33 32 32 30 26 23 15 11 8 8 8 9 7 10 16 18 17 14 11 9 9 7 4 6 9 9 9 9 8 9 9 9 11 12 11 8 7 4 7 11 14 15 18 18 19 22 25 30 35 35 35 35 34
33 31 29 29 26 20 16 11 11 8 8 8 11 10 10 12 15 16 13 12 10 10 9 7 9 10 11 11 10 9 9 10 11 12 14 15 15 12 10 10 8 5 9 11 15 19 24 26 29 32 33 36 36 36
31 27 28 23 22 17 10 11 9 9 8 9 10 9 9 10 12 14 14 14 14 13 11 14 14 15 16 18 17 17 18 18 17 16 16 18 19 17 15 14 14 12 8 6 7 10 12 12 15 15 16 21 27 31
27 26 25 23 18 14 7 10 9 8 7 8 9 8 7 8 10 14 14 16 17 17 19 18 18 17 16 17 18 18 17 17 19 21 24 23 23 23 22 22 21 18 18 16 16 17 19 18 17 17 20 21 21 20
25 25 23 20 15 16 10 9 9 8 6 7 8 7 7 7 10 14 16 16 15 17 17 21 21 22 20 22 21 20 21 21 21 22 23 23 31 30 25 24 28 26 28 28 26 25 26 26 27 27 25 23 23 22
25 25 22 18 14 14 11 6 8 7 5 7 6 6 5 6 9 13 14 14 8 19 19 17 18 22 24 25 24 25 29 29 22 18 19 18 21 26 28 24 33 31 31 30 31 29 30 31 32 31 27 26 26 23
22 25 23 14 16 18 10 7 7 6 5 6 5 5 5 7 11 12 12 16 23 26 23 20 25 25 27 26 22 20 24 28 32 25 22 24 26 29 30 25 28 28 27 27 30 33 34 32 31 28 24 21 23 23
21 19 16 15 22 26 14 7 7 5 5 4 4 4 5 9 12 12 12 16 22 10 21 19 24 27 25 24 26 27 34 29 22 18 23 26 25 25 28 32 28 24 30 29 30 31 31 32 28 24 21 21 23 26
17 15 19 20 24 30 12 6 8 5 4 4 4 3 7 11 11 14 11 19 25 24 25 28 31 28 25 24 22 25 20 20 14 20 23 24 28 22 18 22 27 29 27 30 25 25 27 28 28 26 24 25 29 30
18 16 15 13 23 20 9 8 7 5 3 4 4 5 8 7 11 15 17 21 21 23 24 29 35 30 25 24 21 20 21 20 18 17 13 10 13 13 17 15 18 9 14 20 20 23 25 24 26 26 27 28 31 33
15 13 14 24 25 11 8 9 7 4 3 3 3 6 8 8 10 14 19 21 22 23 27 31 32 27 24 20 19 17 18 17 15 15 14 19 18 17 18 18 17 19 22 17 22 23 23 22 28 29 30 31 31 32
14 13 17 20 11 7 9 9 7 4 4 3 3 6 7 9 9 13 19 24 23 26 28 29 28 24 20 19 17 17 16 14 15 16 17 18 18 16 16 16 15 17 20 24 27 30 31 33 31 28 27 25 25 23
12 9 8 8 6 7 9 8 7 5 4 3 4 6 6 9 13 21 26 24 25 24 27 27 26 20 18 18 17 17 17 18 18 18 17 16 16 16 17 17 18 16 19 23 25 22 23 25 26 28 27 27 27 26
5 5 8 4 5 8 9 7 6 4 3 2 4 7 9 11 15 17 18 21 23 24 26 24 23 20 19 18 18 18 18 19 19 20 20 21 19 17 17 18 21 22 25 26 25 26 25 27 24 27 27 29 30 26
6 10 6 5 6 8 8 7 5 2 2 2 4 7 10 6 15 14 19 22 24 24 24 24 24 24 21 20 19 18 19 19 20 21 21 22 22 23 23 24 24 25 27 28 28 25 28 26 23 31 32 29 26 22
11 11 7 6 8 9 9 6 3 3 4 4 3 5 10 5 13 17 20 22 24 25 25 26 27 26 25 22 21 21 21 21 22 24 23 23 23 23 23 26 28 29 30 32 30 28 28 33 29 30 29 29 23 20
14 10 6 8 9 10 8 5 5 5 5 4 4 4 8 9 12 17 23 22 23 25 26 26 26 25 25 24 24 23 22 23 22 23 23 23 23 24 26 29 29 32 34 33 29 24 27 34 27 24 18 12 17 17
9 7 8 9 9 9 7 6 6 6 4 5 6 5 4 9 15 20 23 25 23 26 26 26 26 28 29 28 25 22 22 24 26 27 25 24 25 27 28 28 31 33 33 31 30 25 25 22 20 23 15 17 16 15
5 7 9 10 9 8 8 7 6 6 5 6 7 9 9 13 17 22 25 27 29 28 28 28 28 28 28 27 24 24 25 25 25 25 25 26 27 26 28 30 33 32 33 29 23 21 21 21 22 18 17 12 17 18
5 7 10 10 9 9 8 6 5 6 6 4 6 7 10 15 18 23 25 27 28 29 28 29 28 28 28 28 26 22 23 24 25 25 25 25 24 26 28 32 33 33 31 26 19 9 3 2 13 11 10 19 23 19
7 9 11 11 10 9 8 5 6 6 6 6 9 11 12 15 18 20 22 26 27 26 25 30 30 28 28 29 27 23 23 25 25 26 26 24 25 28 30 32 33 31 29 27 14 6 5 9 3 2 3 8 10 14
10 11 12 11 11 10 8 6 7 6 4 2 3 7 11 13 11 21 23 25 27 24 28 29 27 26 26 27 26 24 24 25 26 26 25 24 25 28 30 31 33 32 30 27 22 1 3 3 2 5 5 10 12 12
10 12 12 11 11 9 6 5 5 4 5 7 10 10 13 13 16 17 20 26 23 26 29 24 26 27 24 24 25 24 25 25 25 25 24 23 25 28 30 32 32 33 30 29 25 17 9 8 4 1 7 9 12 15
12 13 12 11 10 7 6 6 4 4 6 8 8 7 10 12 14 17 22 27 28 26 24 21 24 25 22 23 24 24 24 24 24 24 23 22 23 26 29 31 32 32 33 29 25 22 19 15 11 9 8 6 6 7
14 13 12 10 8 6 5 4 4 6 9 8 8 10 12 11 16 16 19 23 24 22 21 19 22 23 21 21 23 23 23 24 24 23 23 22 21 23 27 29 31 31 31 31 30 28 24 21 18 16 15 14 14 12
14 13 12 11 8 6 4 3 6 7 4 7 9 10 10 12 12 14 18 20 22 21 23 21 20 24 23 20 20 22 23 22 22 22 23 23 21 21 25 26 28 29 29 29 29 28 28 27 25 23 20 19 17 15
14 14 12 8 6 3 3 3 2 4 8 10 15 16 13 10 9 14 16 17 19 22 25 23 21 20 23 22 20 20 21 22 21 20 21 22 22 21 22 24 26 27 27 27 27 28 28 27 27 25 24 23 22 20
16 14 12 9 5 1 2 3 3 4 9 11 11 12 14 15 14 13 14 15 19 22 23 24 21 18 21 22 21 19 20 21 21 20 20 21 21 21 22 23 24 25 25 26 26 26 26 26 25 25 24 23 22 21
18 15 12 8 4 0 3 6 6 8 11 9 13 14 14 15 12 13 12 13 17 19 21 22 23 20 19 22 21 19 18 19 19 20 20 20 20 21 21 20 21 21 23 23 24 24 25 25 25 24 23 22 22 21
17 15 11 7 3 5 6 7 9 10 10 11 12 13 16 14 13 13 13 13 15 17 20 22 23 23 18 20 20 18 17 17 18 19 19 19 20 21 21 21 20 21 21 22 22 23 24 24 24 24 23 23 22 20
19 17 14 11 10 11 11 11 14 14 15 15 13 11 17 18 18 18 18 17 14 15 19 26 24 23 20 18 19 17 17 16 17 17 17 18 19 18 19 19 19 19 19 20 20 21 22 23 24 25 25 24 24 23
16 15 14 14 14 13 13 14 15 15 17 20 24 22 20 17 17 20 22 20 18 18 20 20 20 21 20 20 18 18 18 17 17 16 16 16 16 17 17 17 17 18 18 18 18 19 20 22 24 25 27 26 26 25
Wind_Direction
317 322 318 319 321 320 320 312 272 258 271 258 261 343 15 20 14 6 7 10 10 21 32 40 46 45 39 31 31 30 29 29 40 33 32 7 273 263 260 259 254 249 244 239 235 234 239 249 261 270 275 273 272 283
317 317 315 318 317 318 315 309 250 254 258 252 251 282 341 3 6 1 2 2 358 351 355 2 347 341 358 9 10 15 4 350 349 352 352 350 345 6 320 258 254 250 245 240 239 243 255 266 276 278 277 276 274 273
316 308 309 316 311 314 311 279 243 268 248 250 256 272 314 344 357 348 351 347 337 328 329 317 314 320 319 320 322 315 317 324 321 317 316 318 325 329 330 343 351 273 245 248 258 265 275 280 283 284 280 276 272 272
314 309 310 311 311 305 304 248 250 263 241 248 262 274 303 331 348 338 339 336 328 328 317 306 297 294 294 297 293 295 296 294 295 296 292 294 294 291 295 307 309 301 307 294 272 267 270 283 294 304 301 281 272 272
310 309 311 309 303 307 289 237 262 261 245 249 264 281 300 324 336 328 337 337 331 326 321 317 317 312 302 299 290 286 284 289 290 287 284 279 278 279 278 279 279 277 272 270 272 274 277 280 287 291 291 290 294 292
308 309 305 309 295 308 261 235 264 253 244 261 266 274 293 326 331 328 330 333 327 323 324 313 305 304 305 295 293 286 286 284 285 290 282 272 273 274 269 270 275 270 269 271 274 272 278 279 281 281 285 292 294 298
306 306 296 296 289 308 257 243 258 247 244 261 264 269 292 322 326 327 339 349 16 0 345 343 340 327 314 301 301 296 296 280 285 284 281 285 270 272 281 256 267 275 266 267 269 269 272 274 284 285 285 291 293 297
314 305 299 278 318 302 241 216 244 233 245 261 260 266 301 330 326 325 328 321 315 319 331 317 324 322 317 304 308 294 286 279 285 283 283 280 273 268 264 250 264 271 263 263 273 270 268 274 283 284 285 291 297 301
298 293 284 295 304 303 255 191 232 218 244 255 258 287 329 328 327 340 343 350 354 328 346 337 325 319 313 313 313 308 299 284 270 290 285 289 296 299 273 268 267 249 266 273 275 275 269 276 277 278 288 294 297 298
286 274 274 296 296 294 232 200 211 215 245 255 268 315 341 340 347 336 317 324 331 326 327 334 337 336 329 326 324 310 306 320 317 303 303 296 286 292 305 275 270 260 249 282 263 266 272 273 273 280 287 292 295 298
286 267 273 296 298 279 183 211 200 211 252 265 291 334 348 350 348 355 350 341 343 336 330 337 337 336 333 330 326 320 319 325 319 309 308 331 324 297 301 305 306 307 290 288 278 279 274 270 277 284 289 290 291 294
290 291 297 289 298 210 173 197 195 212 268 268 313 346 346 348 358 348 343 341 343 340 342 338 335 338 336 335 332 330 326 324 323 323 309 312 309 305 302 301 298 294 287 275 287 272 257 290 292 297 293 287 287 291
275 284 291 292 223 159 190 189 197 215 263 290 336 341 336 345 360 356 349 347 346 348 343 338 338 338 340 343 345 345 345 344 337 325 323 318 317 319 318 316 308 294 283 284 284 277 270 288 287 285 278 286 297 296
279 275 268 183 153 192 187 188 203 232 263 292 322 321 322 331 318 315 326 339 347 345 342 342 339 339 344 349 348 347 345 344 346 346 346 343 332 329 329 330 324 310 309 299 284 279 285 282 279 279 282 286 293 292
309 185 158 181 206 194 183 190 212 230 255 283 307 310 331 340 341 345 339 347 347 346 345 343 342 343 339 341 341 342 343 341 338 335 330 328 329 326 326 325 323 321 318 314 300 279 280 290 272 267 274 278 284 287
280 177 193 224 209 191 185 195 215 231 224 253 294 329 352 30 360 352 353 348 348 349 346 351 352 352 347 338 334 333 332 333 332 328 327 326 324 323 323 320 317 312 310 310 305 292 287 278 275 286 275 271 275 282
208 180 207 222 202 190 189 195 205 200 196 231 278 353 25 16 353 0 354 348 352 350 353 356 357 354 350 344 338 332 331 328 327 326 326 324 323 320 318 316 314 314 311 308 306 291 274 268 279 279 260 262 267 283
184 193 225 205 194 187 189 192 200 201 216 250 281 317 341 342 344 353 353 353 352 353 355 355 357 354 352 347 342 338 336 337 338 336 335 330 326 323 320 322 323 319 314 309 306 289 265 269 273 255 239 243 266 268
190 225 207 195 189 184 193 197 202 220 235 264 291 271 302 334 352 357 351 353 355 357 354 351 357 360 357 351 344 341 340 344 345 343 341 337 331 331 335 331 328 325 319 314 305 289 264 269 261 272 265 263 253 239
223 221 196 191 185 189 200 200 206 233 242 262 274 279 300 316 333 344 340 344 350 350 352 352 355 359 357 353 350 347 349 351 348 343 341 340 342 343 342 342 340 336 331 327 315 293 251 250 252 260 272 245 234 240
228 206 196 192 189 197 205 200 212 229 244 277 299 279 303 321 324 327 330 342 342 342 345 352 355 358 356 357 358 357 357 355 352 351 352 354 352 353 354 353 351 349 350 345 342 337 304 167 237 226 210 206 229 243
225 204 200 195 200 199 200 204 226 222 240 275 290 289 288 302 322 328 334 337 339 339 344 351 352 357 355 358 359 1 2 359 0 360 1 2 4 3 360 2 3 3 6 7 11 16 136 109 107 27 168 226 249 261
214 203 197 201 203 204 208 217 240 240 265 280 318 319 314 314 311 332 333 338 343 346 354 347 345 352 353 356 0 4 2 3 2 3 5 9 10 8 8 9 13 15 20 29 40 134 31 60 311 317 295 296 275 269
207 200 197 202 203 207 223 251 258 253 269 280 277 305 325 320 321 320 334 340 340 346 346 342 345 347 349 357 4 7 5 4 4 5 8 13 11 10 14 18 20 23 27 32 39 49 48 30 19 291 292 277 287 284
204 195 194 201 202 203 223 245 238 255 271 281 283 294 332 347 349 338 340 344 350 349 346 350 348 352 351 355 6 10 6 5 7 5 9 17 12 11 16 22 26 28 32 34 37 40 41 37 36 28 21 356 315 308
193 187 191 195 195 212 243 240 217 248 289 291 294 291 297 315 333 329 337 342 345 339 353 352 347 351 351 354 2 7 7 6 8 8 8 14 14 10 17 25 28 30 31 35 40 41 41 40 40 39 38 36 35 35
182 181 180 180 189 215 220 221 245 228 279 313 313 321 312 308 311 325 328 338 336 344 348 350 341 344 348 355 359 3 5 6 8 9 10 12 13 12 17 23 27 30 32 32 35 38 41 44 44 42 40 38 35 34
176 178 177 175 185 211 252 244 224 289 298 293 290 304 313 329 292 313 330 334 341 350 347 351 348 343 346 347 356 360 2 4 6 11 14 13 10 15 18 21 25 26 29 31 31 33 35 37 38 38 39 40 42 42
178 173 174 174 172 125 24 201 268 300 321 330 311 299 304 313 298 280 303 338 350 350 349 353 352 348 349 347 351 359 358 359 4 10 15 16 12 11 18 20 22 22 23 26 28 30 31 32 33 33 33 33 32 33
178 176 173 177 181 255 318 326 292 286 301 310 334 322 316 298 292 289 301 335 348 349 348 345 342 337 346 350 345 352 355 353 360 8 13 17 16 13 13 18 22 21 20 19 22 24 26 27 28 28 27 28 28 28
181 178 181 202 242 292 313 322 323 309 309 291 292 292 316 314 301 299 305 318 337 352 353 343 336 335 332 343 342 346 350 353 358 4 9 14 19 17 15 14 16 21 22 19 20 22 24 24 25 24 23 22 21 20
200 207 220 242 269 287 296 300 310 302 298 310 304 294 299 302 305 298 296 298 308 336 329 332 332 334 335 333 335 336 347 348 351 358 2 9 13 15 17 16 14 17 21 22 22 23 23 21 20 17 14 12 11 9
225 236 249 265 276 283 289 297 305 305 294 291 296 299 301 293 291 292 291 285 289 299 311 314 321 321 330 331 331 328 332 338 343 347 353 360 3 6 9 12 12 14 17 19 20 21 21 18 16 13 10 6 4 2
Height
5780 5775 5769 5764 5759 5754 5752 5748 5746 5747 5746 5747 5746 5744 5743 5740 5738 5736 5733 5731 5730 5727 5725 5723 5721 5719 5717 5716 5715 5714 5714 5712 5711 5711 5709 5707 5706 5705 5705 5705 5705 5706 5707 5709 5710 5712 5715 5716 5718 5721 5721 5721 5721 5718
5772 5768 5763 5758 5754 5750 5746 5744 5744 5744 5743 5744 5744 5742 5741 5738 5736 5736 5733 5730 5729 5727 5726 5724 5722 5720 5719 5718 5716 5715 5714 5713 5712 5710 5709 5708 5706 5705 5702 5701 5700 5702 5703 5704 5706 5706 5706 5707 5708 5708 5708 5707 5707 5706
5764 5760 5756 5752 5749 5745 5742 5740 5741 5741 5740 5740 5740 5740 5739 5738 5735 5734 5732 5730 5728 5726 5725 5723 5721 5720 5718 5717 5716 5714 5713 5712 5710 5709 5708 5707 5705 5704 5702 5701 5699 5697 5697 5698 5699 5699 5700 5699 5698 5696 5695 5695 5695 5693
5758 5754 5751 5746 5743 5740 5737 5737 5738 5738 5736 5737 5738 5738 5738 5736 5734 5732 5730 5728 5726 5725 5723 5721 5719 5717 5715 5713 5712 5711 5710 5708 5706 5705 5704 5703 5703 5702 5700 5699 5698 5697 5695 5694 5694 5694 5694 5694 5692 5690 5687 5686 5685 5683
5752 5749 5745 5741 5738 5736 5732 5733 5734 5734 5734 5734 5735 5736 5735 5733 5732 5730 5729 5727 5724 5723 5719 5717 5715 5713 5710 5708 5706 5704 5703 5701 5700 5699 5697 5697 5696 5697 5696 5695 5693 5694 5693 5693 5692 5690 5689 5688 5687 5685 5683 5681 5678 5675
5747 5744 5740 5737 5734 5731 5729 5730 5731 5731 5730 5732 5733 5734 5733 5731 5730 5729 5727 5725 5722 5719 5716 5712 5710 5708 5706 5703 5700 5698 5696 5694 5693 5691 5689 5689 5688 5688 5688 5688 5685 5685 5685 5686 5686 5685 5683 5681 5680 5678 5676 5673 5670 5666
5741 5738 5734 5731 5729 5727 5725 5727 5729 5729 5728 5729 5731 5731 5730 5728 5728 5727 5725 5723 5719 5716 5713 5709 5706 5703 5699 5695 5693 5691 5689 5686 5685 5683 5682 5680 5678 5676 5676 5680 5675 5675 5676 5676 5676 5675 5674 5672 5670 5668 5666 5663 5660 5657
5735 5733 5729 5727 5725 5723 5723 5724 5726 5726 5727 5728 5729 5729 5727 5726 5726 5725 5722 5720 5717 5713 5710 5706 5703 5699 5694 5689 5686 5683 5681 5679 5678 5673 5672 5671 5668 5667 5667 5668 5666 5665 5665 5665 5665 5665 5664 5663 5661 5659 5656 5653 5650 5647
5726 5725 5723 5722 5722 5721 5719 5722 5724 5724 5725 5726 5728 5727 5726 5726 5724 5722 5720 5718 5713 5711 5707 5702 5698 5694 5688 5683 5680 5676 5669 5666 5662 5664 5663 5662 5660 5658 5658 5656 5653 5653 5655 5656 5655 5654 5655 5654 5653 5651 5648 5646 5644 5641
5723 5721 5719 5719 5718 5717 5718 5720 5722 5722 5724 5725 5726 5725 5725 5724 5722 5720 5717 5715 5711 5708 5702 5698 5692 5686 5682 5676 5672 5669 5665 5662 5661 5661 5657 5654 5653 5652 5650 5648 5646 5645 5645 5645 5643 5645 5645 5645 5644 5642 5639 5637 5635 5632
5718 5715 5716 5716 5715 5715 5716 5719 5720 5721 5723 5724 5724 5724 5723 5722 5720 5717 5715 5713 5708 5704 5699 5692 5687 5681 5676 5672 5668 5665 5661 5659 5657 5656 5653 5650 5648 5645 5644 5643 5640 5638 5639 5639 5638 5637 5637 5635 5635 5633 5630 5626 5624 5621
5714 5712 5713 5712 5712 5712 5715 5717 5718 5721 5722 5723 5722 5722 5721 5720 5718 5716 5713 5709 5705 5700 5694 5688 5683 5677 5673 5669 5665 5662 5659 5656 5653 5651 5649 5646 5644 5641 5639 5637 5634 5633 5632 5631 5630 5629 5627 5625 5625 5623 5620 5617 5614 5611
5710 5709 5710 5709 5710 5712 5714 5715 5718 5719 5721 5721 5721 5721 5720 5719 5717 5714 5711 5707 5702 5697 5692 5686 5680 5675 5671 5667 5663 5659 5656 5654 5651 5647 5644 5641 5638 5635 5633 5631 5629 5627 5626 5625 5623 5622 5620 5615 5614 5612 5610 5607 5605 5602
5706 5706 5706 5708 5709 5711 5713 5715 5717 5719 5720 5720 5720 5720 5719 5717 5715 5711 5708 5704 5700 5694 5689 5683 5678 5674 5669 5665 5661 5657 5654 5651 5647 5644 5641 5638 5634 5631 5628 5626 5623 5621 5619 5617 5613 5612 5610 5607 5604 5602 5601 5599 5596 5594
5704 5704 5706 5708 5709 5710 5712 5714 5716 5717 5718 5719 5719 5718 5717 5716 5713 5709 5706 5702 5698 5692 5687 5682 5677 5671 5666 5663 5659 5656 5652 5648 5645 5641 5638 5634 5631 5628 5625 5622 5618 5614 5610 5607 5604 5602 5600 5598 5596 5594 5592 5590 5589 5587
5703 5704 5706 5707 5708 5710 5712 5713 5715 5716 5717 5717 5717 5716 5715 5714 5712 5708 5704 5701 5696 5691 5685 5680 5674 5669 5665 5660 5657 5653 5650 5646 5642 5638 5634 5630 5626 5622 5618 5615 5611 5608 5603 5598 5594 5591 5590 5587 5586 5585 5583 5581 5580 5579
5700 5703 5704 5705 5707 5709 5711 5712 5714 5715 5715 5715 5715 5715 5714 5713 5710 5706 5703 5699 5694 5689 5683 5678 5672 5667 5662 5658 5654 5650 5646 5642 5638 5634 5630 5626 5622 5617 5613 5608 5603 5598 5593 5588 5583 5580 5578 5577 5575 5573 5571 5571 5571 5569
5700 5702 5703 5704 5706 5708 5710 5711 5713 5713 5713 5714 5715 5713 5712 5712 5709 5706 5702 5698 5693 5687 5681 5677 5671 5665 5660 5655 5650 5647 5642 5639 5634 5630 5625 5620 5616 5611 5606 5600 5595 5588 5582 5576 5571 5568 5567 5564 5564 5563 5563 5563 5562 5562
5700 5702 5701 5703 5705 5707 5709 5711 5711 5712 5712 5712 5712 5711 5712 5710 5707 5704 5700 5696 5691 5686 5681 5676 5669 5664 5658 5652 5648 5644 5639 5635 5630 5625 5620 5615 5610 5604 5599 5593 5587 5579 5572 5565 5559 5554 5553 5553 5554 5554 5555 5557 5557 5556
5699 5700 5700 5702 5704 5706 5708 5710 5710 5710 5710 5710 5710 5710 5710 5708 5705 5702 5699 5694 5688 5683 5679 5674 5668 5662 5657 5651 5646 5641 5635 5631 5627 5622 5616 5610 5605 5599 5593 5587 5580 5571 5562 5554 5546 5542 5541 5543 5545 5546 5548 5550 5551 5550
5698 5698 5699 5701 5703 5705 5707 5708 5709 5709 5708 5708 5708 5708 5708 5706 5703 5701 5697 5693 5688 5683 5678 5674 5667 5662 5656 5650 5645 5639 5635 5630 5625 5619 5613 5608 5602 5597 5591 5584 5574 5565 5555 5546 5538 5535 5534 5535 5540 5543 5544 5547 5546 5546
5696 5697 5698 5700 5702 5704 5706 5707 5707 5707 5708 5708 5707 5706 5705 5704 5702 5699 5695 5690 5686 5681 5677 5672 5666 5661 5656 5650 5644 5639 5634 5629 5623 5618 5612 5607 5602 5596 5590 5582 5573 5564 5555 5547 5538 5537 5536 5538 5540 5540 5541 5543 5544 5544
5694 5695 5697 5699 5701 5703 5706 5705 5705 5705 5706 5706 5705 5704 5703 5702 5700 5697 5693 5689 5684 5679 5675 5670 5664 5659 5655 5650 5644 5638 5633 5628 5623 5618 5612 5606 5601 5596 5590 5582 5574 5566 5557 5550 5544 5542 5542 5542 5543 5544 5544 5543 5541 5539
5692 5694 5696 5698 5700 5702 5703 5703 5703 5704 5704 5704 5703 5703 5702 5700 5698 5695 5691 5687 5683 5678 5673 5667 5663 5658 5654 5649 5644 5638 5633 5628 5623 5618 5612 5606 5602 5597 5591 5583 5576 5569 5561 5555 5551 5548 5546 5545 5544 5544 5543 5542 5539 5537
5691 5693 5695 5696 5699 5700 5701 5701 5702 5702 5702 5702 5701 5700 5699 5698 5695 5693 5690 5686 5681 5676 5672 5666 5662 5656 5652 5648 5643 5638 5633 5628 5623 5619 5613 5607 5603 5599 5593 5586 5579 5573 5567 5561 5557 5554 5551 5548 5545 5543 5541 5539 5536 5534
5688 5691 5694 5695 5697 5699 5699 5700 5700 5701 5701 5700 5699 5698 5697 5695 5693 5690 5687 5683 5680 5675 5670 5666 5662 5656 5651 5646 5642 5638 5633 5629 5624 5620 5615 5609 5604 5601 5595 5589 5583 5577 5572 5567 5563 5558 5555 5551 5548 5545 5543 5540 5537 5535
5687 5690 5692 5694 5696 5697 5698 5698 5697 5698 5698 5698 5696 5694 5693 5692 5690 5688 5684 5681 5679 5674 5670 5666 5662 5659 5653 5646 5642 5638 5634 5629 5625 5620 5615 5610 5606 5602 5598 5592 5587 5582 5577 5572 5568 5564 5560 5556 5552 5549 5546 5543 5540 5538
5686 5689 5692 5694 5695 5696 5696 5696 5696 5697 5696 5695 5694 5693 5692 5690 5689 5686 5683 5680 5676 5672 5669 5665 5662 5658 5653 5648 5642 5638 5634 5629 5625 5621 5616 5612 5608 5604 5600 5595 5590 5586 5582 5577 5573 5568 5564 5560 5557 5554 5551 5548 5545 5542
5686 5689 5691 5693 5695 5695 5695 5695 5695 5694 5694 5692 5691 5690 5689 5687 5684 5682 5681 5678 5674 5670 5667 5664 5660 5657 5653 5648 5643 5638 5634 5631 5626 5621 5617 5613 5610 5606 5601 5597 5593 5589 5585 5581 5578 5573 5570 5566 5562 5559 5556 5553 5550 5547
5686 5688 5691 5693 5694 5694 5695 5694 5693 5692 5691 5690 5689 5687 5685 5684 5682 5681 5679 5675 5671 5668 5665 5662 5659 5655 5651 5648 5643 5639 5635 5631 5627 5622 5618 5614 5610 5607 5604 5600 5596 5593 5589 5585 5582 5578 5574 5570 5567 5564 5561 5557 5554 5550
5686 5689 5691 5691 5692 5692 5692 5692 5691 5690 5689 5688 5687 5686 5684 5681 5680 5678 5676 5673 5669 5666 5663 5661 5658 5654 5650 5646 5642 5638 5635 5631 5627 5623 5619 5615 5611 5608 5605 5602 5598 5595 5591 5588 5585 5581 5578 5574 5570 5566 5563 5559 5556 5552
5684 5687 5689 5690 5691 5691 5690 5690 5689 5687 5686 5684 5683 5682 5681 5678 5676 5674 5672 5669 5667 5664 5661 5659 5656 5652 5648 5644 5641 5637 5634 5630 5627 5623 5619 5615 5612 5609 5606 5603 5600 5597 5594 5591 5587 5584 5580 5577 5573 5569 5566 5562 5558 5554
5684 5687 5688 5688 5689 5688 5687 5687 5685 5684 5682 5681 5680 5679 5676 5674 5672 5670 5667 5665 5663 5660 5658 5655 5653 5650 5646 5643 5639 5636 5633 5629 5625 5621 5618 5614 5611 5608 5606 5604 5601 5598 5595 5592 5589 5586 5582 5579 5575 5572 5568 5563 5558 5554